Tiempo atmosférico en la estación meteorológica de El Maíllo, Salamanca (1027 m.)



Fecha
DESCASC
Temp. máxima en grados centígrados (hora)
DESCASC
Temp. mínima en grados centígrados (hora)
DESCASC
Temp. media en grados centígrados
DESCASC
Racha de viento máxima en m/sg (hora)
DESCASC
Velocidad máxima media en intervalos de 10 minutos(hora)
DESCASC
Precipitaciones diarias en mm
DESCASC
Precipitaciones de 00:00 a 06:00 en mm
DESCASC
Precipitaciones de 06:00 a 12:00 en mm
DESCASC
Precipitaciones de 12:00 a 18:00 en mm
DESCASC
Precipitaciones de 18:00 a 24:00 en mm
DESCASC
22-01-2021 8.6 (02:20) 0.8 (00:00) 4.7 25.83 (05:00) 16.39 (05:10) 12.2 2 6 4.2 0
20-01-2021 7.8 (13:50) 3.9 (00:00) 5.9 27.22 (02:30) 17.22 (02:30) 13.6 2.4 2.8 6.6 1.8
29-12-2020 3.3 (16:50) -1.6 (-00:0) 0.8 11.94 (15:40) 7.22 (15:40) 2 0 2 0 0
23-01-2021 9.5 (21:10) 2.3 (00:00) 5.9 23.06 (14:00) 13.61 (14:10) 8.6 0.8 1.4 2.4 4
01-01-2021 1.7 (15:30) -2.2 (-00:0) -0.3 9.72 (13:20) 5.83 (15:30) 1.4 0 1.2 0.2 0
25-01-2021 10 (15:00) 7.1 (00:00) 8.5 15.56 (04:40) 9.44 (03:50) 8 0 1 2.6 4.4
03-01-2021 2.5 (15:20) -5 (-00:0) -1.3 7.5 (14:30) 4.72 (15:20) 0.2 0 0.2 0 0
31-12-2020 4.5 (12:50) -0.4 (00:00) 2 12.5 (12:40) 7.78 (19:20) 4.4 0 0.2 1.8 2.4
24-01-2021 7.5 (14:20) 3.8 (00:00) 5.6 14.44 (04:40) 8.89 (05:00) 0 0 0 0 0
26-01-2021 12.1 (14:50) 9.2 (00:00) 10.7 7.22 (00:40) 5 (20:40) 0 0 0 0 0
21-01-2021 9.3 (16:40) 5.9 (00:00) 7.6 19.72 (17:00) 11.39 (14:00) 1.8 0.6 0 0.6 0.6
28-12-2020 5.8 (03:00) 0.5 (00:00) 3.2 20.56 (03:10) 13.06 (03:50) 1.6 1 0 0.4 0.2
19-01-2021 10.6 (15:40) 2.2 (00:00) 6.4 25 (21:10) 16.94 (21:10) 0 0 0 0 0
18-01-2021 13.2 (14:40) 1.4 (00:00) 7.3 6.94 (07:50) 5.83 (08:00) 0 0 0 0 0
17-01-2021 12.8 (14:40) 0.1 (00:00) 6.5 5.56 (22:40) 4.72 (03:40) 0 0 0 0 0
16-01-2021 12.5 (15:50) 2 (00:00) 7.3 7.22 (02:20) 5.28 (02:20) 0 0 0 0 0
15-01-2021 8.2 (15:30) -2.3 (-00:0) 2.9 8.61 (12:10) 5.28 (16:40) 0 0 0 0 0
14-01-2021 10.4 (15:00) -2.3 (04:30) 4 6.94 (22:20) 4.72 (22:20) 0 0 0 0 0
13-01-2021 10.4 (14:00) -2.2 (-00:0) 4.1 4.44 (19:20) 3.89 (19:20) 0 0 0 0 0
12-01-2021 9.1 (13:10) -2.5 (-00:0) 3.3 13.33 (00:10) 8.33 (00:10) 0 0 0 0 0
11-01-2021 0.7 (23:59) -2.5 (-00:0) -0.9 18.06 (04:10) 11.11 (04:10) 0 0 0 0 0
10-01-2021 -0.3 (14:20) -4 (05:00) -2.2 17.22 (23:10) 11.39 (22:40) 0.2 0 0 0.2 0
09-01-2021 -3 (16:00) -4.1 (-00:0) -3.5 15.28 (10:20) 10 (10:20) 0 0 0 0 0
08-01-2021 -1.4 (15:20) -4.8 (-00:0) -3.1 11.11 (09:10) 7.5 (13:00) 0 0 0 0 0
07-01-2021 3.1 (15:30) -3.7 (-00:0) -0.3 10 (22:30) 6.67 (22:20) 0 0 0 0 0
06-01-2021 3.9 (16:10) -5.3 (-00:0) -0.7 6.39 (15:00) 4.44 (16:50) 0 0 0 0 0
05-01-2021 4 (14:30) -6.1 (-00:0) -1 6.39 (15:00) 3.89 (23:00) 0 0 0 0 0
04-01-2021 1.4 (14:30) -4.1 (-00:0) -1.3 6.39 (01:20) 3.89 (01:30) 0.2 0 0 0.2 0
02-01-2021 2.6 (16:20) -3.1 (-00:0) -0.3 8.61 (16:20) 4.17 (14:00) 0 0 0 0 0
30-12-2020 3.8 (15:50) -2.4 (-00:0) 0.7 6.94 (15:40) 4.72 (15:10) 0 0 0 0 0

Gráficas

Temp. máximas Temp. mínimas Temp. medias Precipitaciones Rachas de viento máximas Velocidades máximas media en intervalos de 10 minutos

Datos horarios

Fecha y hora oficial Temperatura (ºC) Velocidad del viento (km/h) Dirección del viento Racha (km/h) Dirección de racha Precipitación (mm) Presión (hPa) Tendencia (hPa) Humedad (%)
2021-01-26 23:00:00 10.8 13 Oeste 26 Oeste 0 -- -- 100
2021-01-26 22:00:00 11 12 Oeste 21 Sudoeste 0 -- -- 100
2021-01-26 21:00:00 11.1 16 Oeste 25 Oeste 0 -- -- 100
2021-01-26 20:00:00 11.4 14 Oeste 24 Oeste 0 -- -- 100
2021-01-26 19:00:00 11.4 11 Sudoeste 19 Sudoeste 0 -- -- 100
2021-01-26 18:00:00 11.7 12 Sudoeste 21 Sudoeste 0 -- -- 99
2021-01-26 17:00:00 11.8 12 Sudoeste 19 Sudoeste 0 -- -- 99
2021-01-26 16:00:00 11.9 12 Oeste 24 Sudoeste 0 -- -- 99
2021-01-26 15:00:00 12.1 16 Sudoeste 24 Sudoeste 0 -- -- 98
2021-01-26 14:00:00 11.8 15 Sudoeste 23 Oeste 0 -- -- 98
2021-01-26 13:00:00 11.5 12 Sudoeste 23 Sudoeste 0 -- -- 99
2021-01-26 12:00:00 11.1 15 Sudoeste 25 Sudoeste 0 -- -- 100
2021-01-26 11:00:00 10.5 13 Sudoeste 24 Sudoeste 0 -- -- 100
2021-01-26 10:00:00 10 14 Sudoeste 22 Sudoeste 0 -- -- 100
2021-01-26 09:00:00 9.8 13 Sudoeste 19 Sudoeste 0 -- -- 100
2021-01-26 08:00:00 9.7 9 Sudoeste 20 Sudoeste 0 -- -- 100
2021-01-26 07:00:00 9.4 9 Sudoeste 16 Sudoeste 0 -- -- 100
2021-01-26 06:00:00 9.3 9 Sudoeste 16 Sudoeste 0 -- -- 100
2021-01-26 05:00:00 9.3 11 Sudoeste 18 Sudoeste 0 -- -- 100
2021-01-26 04:00:00 9.2 10 Sudoeste 22 Sudoeste 0 -- -- 100
2021-01-26 03:00:00 9.2 13 Sudoeste 24 Sudoeste 0 -- -- 100
2021-01-26 02:00:00 9.2 15 Sudoeste 26 Sudoeste 0 -- -- 100
2021-01-26 01:00:00 9.3 15 Oeste 26 Sudoeste 0 -- -- 100
2021-01-26 00:00:00 9.4 15 Oeste 26 Oeste 0.4 -- -- 100
2021-01-25 23:00:00 9.4 14 Oeste 28 Oeste 1 -- -- 100
2021-01-25 22:00:00 9.4 15 Oeste 25 Oeste 1.6 -- -- 100
2021-01-25 21:00:00 9.4 16 Oeste 31 Oeste 0.6 -- -- 100
2021-01-25 20:00:00 9.5 19 Oeste 33 Sudoeste 0.8 -- -- 99
2021-01-25 19:00:00 9.4 19 Oeste 35 Sudoeste 0 -- -- 99
2021-01-25 18:00:00 9.6 25 Oeste 40 Sudoeste 0.2 -- -- 99
2021-01-25 17:00:00 9.7 25 Oeste 44 Oeste 0.6 -- -- 99
2021-01-25 16:00:00 9.8 27 Oeste 45 Sudoeste 1 -- -- 98
2021-01-25 15:00:00 10 24 Sudoeste 42 Oeste 0.6 -- -- 98
2021-01-25 14:00:00 9.7 26 Sudoeste 45 Sudoeste 0 -- -- 98
2021-01-25 13:00:00 9.6 22 Sudoeste 47 Sudoeste 0.2 -- -- 98
2021-01-25 12:00:00 9.3 24 Sudoeste 44 Sudoeste 0.2 -- -- 98
2021-01-25 11:00:00 9.2 25 Sudoeste 41 Sudoeste 0.6 -- -- 98
2021-01-25 10:00:00 9.1 26 Sudoeste 46 Sudoeste 0.2 -- -- 96
2021-01-25 09:00:00 9.1 29 Sudoeste 50 Sudoeste 0 -- -- 94
2021-01-25 08:00:00 8.7 30 Sudoeste 50 Sudoeste 0 -- -- 96
2021-01-25 07:00:00 8.5 32 Sudoeste 48 Sudoeste 0 -- -- 95
2021-01-25 06:00:00 8.2 31 Sudoeste 54 Sudoeste 0 -- -- 95
2021-01-25 05:00:00 8.2 33 Sudoeste 56 Sur 0 -- -- 94
2021-01-25 04:00:00 8.1 30 Sudoeste 54 Sudoeste 0 -- -- 94
2021-01-25 03:00:00 7.8 30 Sudoeste 47 Sudoeste 0 -- -- 94
2021-01-25 02:00:00 8 27 Sudoeste 49 Sudoeste 0 -- -- 90
2021-01-25 01:00:00 7.8 26 Sudoeste 50 Sudoeste 0 -- -- 90
2021-01-25 00:00:00 7.1 21 Sudoeste 40 Sudoeste 0 -- -- 93
2021-01-24 23:00:00 6.9 18 Sudoeste 34 Sur 0 -- -- 84
2021-01-24 22:00:00 6.4 15 Sudoeste 28 Sur 0 -- -- 87
2021-01-24 21:00:00 6.4 16 Sudoeste 24 Sudoeste 0 -- -- 86
2021-01-24 20:00:00 6.3 14 Sudoeste 24 Sur 0 -- -- 84
2021-01-24 19:00:00 6.2 12 Sudoeste 23 Sudoeste 0 -- -- 81
2021-01-24 18:00:00 6.5 13 Sudoeste 21 Sudoeste 0 -- -- 80
2021-01-24 17:00:00 6.9 15 Sudoeste 33 Oeste 0 -- -- 77
2021-01-24 16:00:00 7.1 18 Oeste 33 Oeste 0 -- -- 76
2021-01-24 15:00:00 7.4 21 Oeste 32 Sudoeste 0 -- -- 76
2021-01-24 14:00:00 7.1 19 Oeste 30 Sudoeste 0 -- -- 79
2021-01-24 13:00:00 6.5 21 Sudoeste 40 Oeste 0 -- -- 79
2021-01-24 12:00:00 5 22 Sudoeste 33 Sudoeste 0 -- -- 92
2021-01-24 11:00:00 4.8 17 Oeste 29 Sudoeste 0 -- -- 94
2021-01-24 10:00:00 4.3 18 Oeste 31 Sudoeste 0 -- -- 95
2021-01-24 09:00:00 3.8 12 Sudoeste 31 Sudoeste 0 -- -- 95
2021-01-24 08:00:00 3.9 12 Sudoeste 27 Sudoeste 0 -- -- 95
2021-01-24 07:00:00 4 17 Sudoeste 39 Oeste 0 -- -- 94
2021-01-24 06:00:00 4.3 25 Oeste 47 Oeste 0 -- -- 96
2021-01-24 05:00:00 5.1 32 Oeste 52 Sudoeste 0 -- -- 95
2021-01-24 04:00:00 5.6 28 Oeste 50 Oeste 0 -- -- 90
2021-01-24 03:00:00 6 27 Oeste 45 Oeste 0 -- -- 90
2021-01-24 02:00:00 5.9 24 Sudoeste 46 Sudoeste 0 -- -- 91
2021-01-24 01:00:00 6.1 20 Sudoeste 36 Sudoeste 0 -- -- 91
2021-01-24 00:00:00 5.8 22 Sudoeste 50 Oeste 0 -- -- 94
2021-01-23 23:00:00 5.7 35 Oeste 69 Oeste 0 -- -- 89
2021-01-23 22:00:00 9.1 44 Oeste 69 Oeste 0.4 -- -- 97
2021-01-23 21:00:00 9.4 33 Sudoeste 64 Sudoeste 0.6 -- -- 98
2021-01-23 20:00:00 9.4 29 Sudoeste 60 Sudoeste 1.2 -- -- 98
2021-01-23 19:00:00 9.2 33 Sudoeste 50 Sudoeste 1.8 -- -- 97
2021-01-23 18:00:00 9.1 36 Sudoeste 63 Sudoeste 1.2 -- -- 95
2021-01-23 17:00:00 8.9 41 Sudoeste 67 Sudoeste 0.4 -- -- 93
2021-01-23 16:00:00 8.8 37 Sudoeste 64 Sudoeste 0.2 -- -- 91
2021-01-23 15:00:00 8.5 41 Sudoeste 81 Sur 0 -- -- 87
2021-01-23 14:00:00 7.7 48 Sudoeste 83 Sudoeste 0 -- -- 87
2021-01-23 13:00:00 6.3 36 Sudoeste 58 Sur 0.6 -- -- 91
2021-01-23 12:00:00 4.9 35 Sudoeste 56 Sudoeste 1.4 -- -- 93
2021-01-23 11:00:00 4.3 26 Sudoeste 48 Sur 0 -- -- 89
2021-01-23 10:00:00 3.7 26 Sudoeste 46 Sudoeste 0 -- -- 92
2021-01-23 09:00:00 3.3 28 Sudoeste 49 Sudoeste 0 -- -- 94
2021-01-23 08:00:00 3.3 28 Sudoeste 43 Sudoeste 0 -- -- 91
2021-01-23 07:00:00 3.1 29 Sudoeste 43 Sudoeste 0 -- -- 90
2021-01-23 06:00:00 2.8 22 Sudoeste 39 Sudoeste 0 -- -- 92
2021-01-23 05:00:00 2.5 26 Sudoeste 39 Sudoeste 0.2 -- -- 96
2021-01-23 04:00:00 2.6 22 Sudoeste 36 Sudoeste 0.4 -- -- 97
2021-01-23 03:00:00 2.4 19 Sudoeste 35 Sudoeste 0.2 -- -- 95
2021-01-23 02:00:00 2.5 21 Sudoeste 37 Sudoeste 0 -- -- 94
2021-01-23 01:00:00 2.7 22 Sudoeste 40 Sur 0 -- -- 91
2021-01-23 00:00:00 2.4 24 Sudoeste 42 Sudoeste 0 -- -- 93
2021-01-22 23:00:00 2.7 23 Sudoeste 51 Oeste 0 -- -- 90
2021-01-22 22:00:00 2.6 14 Sudoeste 37 Sudoeste 0 -- -- 92
2021-01-22 21:00:00 2.3 19 Sudoeste 29 Sudoeste 0 -- -- 93
2021-01-22 20:00:00 2.1 15 Sudoeste 29 Sudoeste 0 -- -- 94
2021-01-22 19:00:00 2.8 17 Sudoeste 40 Oeste 0 -- -- 94
2021-01-22 18:00:00 3.2 20 Sudoeste 37 Sudoeste 0.2 -- -- 96
2021-01-22 17:00:00 3.7 22 Sudoeste 41 Oeste 0 -- -- 96
2021-01-22 16:00:00 3.4 19 Oeste 32 Oeste 0 -- -- 97
2021-01-22 15:00:00 3.1 22 Sudoeste 39 Oeste 0 -- -- 98
2021-01-22 14:00:00 2.4 26 Sudoeste 43 Oeste 1.4 -- -- 98
2021-01-22 13:00:00 1.1 19 Sudoeste 37 Oeste 2.6 -- -- 98
2021-01-22 12:00:00 1.8 25 Oeste 48 Oeste 3.8 -- -- 96
2021-01-22 11:00:00 3.3 23 Sudoeste 45 Sudoeste 0.6 -- -- 97
2021-01-22 10:00:00 3.4 31 Sudoeste 46 Sudoeste 0 -- -- 97
2021-01-22 09:00:00 2.9 23 Sudoeste 49 Sudoeste 0.8 -- -- 96
2021-01-22 08:00:00 3 36 Sudoeste 66 Sudoeste 0 -- -- 95
2021-01-22 07:00:00 2.6 31 Sudoeste 54 Oeste 0.8 -- -- 96
2021-01-22 06:00:00 3.2 39 Oeste 86 Oeste 1.4 -- -- 95
2021-01-22 05:00:00 5 56 Oeste 93 Oeste 0.6 -- -- 85
2021-01-22 04:00:00 7.3 39 Sudoeste 77 Sudoeste 0 -- -- 86
2021-01-22 03:00:00 8.3 44 Sudoeste 77 Sudoeste 0 -- -- 89
2021-01-22 02:00:00 8.4 45 Sudoeste 78 Sudoeste 0 -- -- 88
2021-01-22 01:00:00 8.4 40 Sudoeste 65 Sudoeste 0 -- -- 83
2021-01-22 00:00:00 8.1 34 Sudoeste 62 Sudoeste 0 -- -- 87
2021-01-21 23:00:00 8.2 33 Sudoeste 59 Sudoeste 0 -- -- 86
2021-01-21 22:00:00 8.2 32 Sudoeste 56 Sudoeste 0 -- -- 87
2021-01-21 21:00:00 8.3 30 Sudoeste 52 Sudoeste 0 -- -- 92
2021-01-21 20:00:00 8.5 27 Sudoeste 51 Sudoeste 0 -- -- 94
2021-01-21 19:00:00 8.6 28 Sudoeste 46 Sudoeste 0.6 -- -- 93
2021-01-21 18:00:00 9.3 33 Sudoeste 63 Sudoeste 0 -- -- 85
2021-01-21 17:00:00 9.1 41 Sudoeste 71 Sudoeste 0 -- -- 87
2021-01-21 16:00:00 9.1 39 Sudoeste 63 Sudoeste 0 -- -- 88
2021-01-21 15:00:00 8.3 36 Sudoeste 64 Sudoeste 0 -- -- 92
2021-01-21 14:00:00 7.7 41 Sudoeste 67 Sudoeste 0.6 -- -- 93
2021-01-21 13:00:00 7.8 38 Sudoeste 64 Sudoeste 0 -- -- 92
2021-01-21 12:00:00 8.4 27 Sudoeste 57 Sudoeste 0 -- -- 85
2021-01-21 11:00:00 7.4 27 Sur 51 Sudoeste 0 -- -- 86
2021-01-21 10:00:00 6.7 34 Sudoeste 52 Sudoeste 0 -- -- 91
2021-01-21 09:00:00 6.3 27 Sudoeste 48 Sudoeste 0 -- -- 91
2021-01-21 08:00:00 6.3 27 Sudoeste 45 Sudoeste 0 -- -- 90
2021-01-21 07:00:00 6.1 18 Sudoeste 43 Sudoeste 0 -- -- 92
2021-01-21 06:00:00 6 21 Sudoeste 33 Sudoeste 0 -- -- 92
2021-01-21 05:00:00 6.6 18 Sudoeste 39 Sur 0 -- -- 91
2021-01-21 04:00:00 6.1 18 Sudoeste 33 Sudoeste 0 -- -- 96
2021-01-21 03:00:00 6 18 Sudoeste 41 Sur 0 -- -- 96
2021-01-21 02:00:00 6.3 24 Sudoeste 40 Sudoeste 0.6 -- -- 96
2021-01-21 01:00:00 6.4 23 Sudoeste 40 Sur 0 -- -- 96
2021-01-21 00:00:00 6.4 24 Sudoeste 41 Sudoeste 0.2 -- -- 96
2021-01-20 23:00:00 6.3 25 Sudoeste 40 Sudoeste 0.2 -- -- 96
2021-01-20 22:00:00 6.4 30 Sudoeste 48 Sur 0.6 -- -- 96
2021-01-20 21:00:00 6.4 27 Sudoeste 40 Sur 0 -- -- 95
2021-01-20 20:00:00 6.3 23 Sudoeste 43 Sudoeste 0.8 -- -- 96
2021-01-20 19:00:00 6.6 22 Sudoeste 46 Sudoeste 0 -- -- 93
2021-01-20 18:00:00 7.1 27 Sudoeste 46 Sudoeste 0.8 -- -- 94
2021-01-20 17:00:00 7.4 29 Sudoeste 54 Sudoeste 0 -- -- 94
2021-01-20 16:00:00 7.4 33 Sudoeste 58 Sudoeste 3.6 -- -- 95
2021-01-20 15:00:00 6.8 24 Sudoeste 66 Sur 2.2 -- -- 93
2021-01-20 14:00:00 7.5 37 Sur 60 Sur 0 -- -- 86
2021-01-20 13:00:00 6.5 35 Sur 57 Sur 0 -- -- 91
2021-01-20 12:00:00 5.8 36 Sur 61 Sur 0 -- -- 91
2021-01-20 11:00:00 5.5 34 Sur 69 Sur 0.2 -- -- 92
2021-01-20 10:00:00 4.9 45 Sur 75 Sur 0.2 -- -- 91
2021-01-20 09:00:00 4.2 49 Sur 76 Sur 0.2 -- -- 91
2021-01-20 08:00:00 3.9 53 Sur 78 Sur 0.8 -- -- 90
2021-01-20 07:00:00 4.4 49 Sur 86 Sur 1.4 -- -- 88
2021-01-20 06:00:00 4.4 48 Sur 97 Sur 2 -- -- 89
2021-01-20 05:00:00 4.4 51 Sur 95 Sur 0.4 -- -- 92
2021-01-20 04:00:00 4.5 48 Sur 93 Sur 0 -- -- 87
2021-01-20 03:00:00 4.4 47 Sur 98 Sur 0 -- -- 86
2021-01-20 02:00:00 4.7 56 Sur 92 Sur 0 -- -- 79
2021-01-20 01:00:00 4.5 51 Sur 81 Sur 0 -- -- 80
2021-01-20 00:00:00 4.6 48 Sur 88 Sur 0 -- -- 81
2021-01-19 23:00:00 4.8 55 Sur 89 Sur 0 -- -- 79
2021-01-19 22:00:00 4.8 54 Sur 90 Sur 0 -- -- 78
2021-01-19 21:00:00 4.5 61 Sur 83 Sudeste 0 -- -- 80
2021-01-19 20:00:00 4.1 45 Sur 70 Sur 0 -- -- 82
2021-01-19 19:00:00 4.4 42 Sur 66 Sur 0 -- -- 73
2021-01-19 18:00:00 5 31 Sur 63 Sur 0 -- -- 66
2021-01-19 17:00:00 6.2 34 Sur 54 Sudeste 0 -- -- 57
2021-01-19 16:00:00 8.7 24 Sur 48 Sur 0 -- -- 44
2021-01-19 15:00:00 9.1 24 Sur 52 Sur 0 -- -- 40
2021-01-19 14:00:00 7.8 30 Sur 49 Sur 0 -- -- 52
2021-01-19 13:00:00 8.9 34 Sur 55 Sur 0 -- -- 45
2021-01-19 12:00:00 8.2 34 Sur 51 Sudeste 0 -- -- 49
2021-01-19 11:00:00 9.5 26 Sur 50 Sur 0 -- -- 42
2021-01-19 10:00:00 8.2 33 Sur 51 Sur 0 -- -- 46
2021-01-19 09:00:00 6.7 21 Sur 34 Sur 0 -- -- 50
2021-01-19 08:00:00 6.5 16 Sur 32 Sur 0 -- -- 43
2021-01-19 07:00:00 6.4 19 Sur 32 Sur 0 -- -- 42
2021-01-19 06:00:00 6.1 21 Sur 32 Sur 0 -- -- 54
2021-01-19 05:00:00 6.1 6 Sur 31 Sur 0 -- -- 49
2021-01-19 04:00:00 6.6 24 Sur 33 Sudeste 0 -- -- 54
2021-01-19 03:00:00 6.4 15 Sur 28 Sur 0 -- -- 50
2021-01-19 02:00:00 4.8 2 Sudeste 17 Sudeste 0 -- -- 47
2021-01-19 01:00:00 7.1 10 Sudeste 22 Sudeste 0 -- -- 44
2021-01-19 00:00:00 2.2 5 Sudeste 13 Sudeste 0 -- -- 63
2021-01-18 23:00:00 2.6 4 Sudeste 14 Sudeste 0 -- -- 72
2021-01-18 22:00:00 2.9 10 Sudeste 21 Sudeste 0 -- -- 76
2021-01-18 21:00:00 3.1 19 Sur 21 Sur 0 -- -- 75
2021-01-18 20:00:00 4.1 14 Sur 21 Sur 0 -- -- 72
2021-01-18 19:00:00 4.8 16 Sur 20 Sudeste 0 -- -- 67
2021-01-18 18:00:00 9.3 10 Sur 13 Sudeste 0 -- -- 53
2021-01-18 17:00:00 12.7 4 Noroeste 13 Noroeste 0 -- -- 43
2021-01-18 16:00:00 12.5 9 Noroeste 18 Noroeste 0 -- -- 44
2021-01-18 15:00:00 13.2 11 Oeste 18 Oeste 0 -- -- 44
2021-01-18 14:00:00 12.8 6 Noroeste 12 Noroeste 0 -- -- 47
2021-01-18 13:00:00 12.5 4 Noroeste 11 Noroeste 0 -- -- 49
2021-01-18 12:00:00 12.2 0 Calma 6 Norte 0 -- -- 48
2021-01-18 11:00:00 9.8 0 Calma 12 Sur 0 -- -- 53
2021-01-18 10:00:00 5 12 Sur 18 Sur 0 -- -- 67
2021-01-18 09:00:00 2.4 14 Sur 22 Sur 0 -- -- 72
2021-01-18 08:00:00 2.4 21 Sur 25 Sur 0 -- -- 72
2021-01-18 07:00:00 2 13 Sur 22 Sur 0 -- -- 72
2021-01-18 06:00:00 2.2 14 Sur 18 Sur 0 -- -- 72
2021-01-18 05:00:00 2.7 11 Sudeste 14 Sudeste 0 -- -- 70
2021-01-18 04:00:00 2.6 8 Sudeste 12 Sur 0 -- -- 73
2021-01-18 03:00:00 1.6 6 Sudeste 9 Sudeste 0 -- -- 79
2021-01-18 02:00:00 4.9 9 Este 14 Este 0 -- -- 64
2021-01-18 01:00:00 6.8 11 Este 17 Este 0 -- -- 62
2021-01-18 00:00:00 6.5 12 Este 18 Este 0 -- -- 64
2021-01-17 23:00:00 6.6 13 Este 20 Este 0 -- -- 66
2021-01-17 22:00:00 6.1 12 Este 18 Este 0 -- -- 67
2021-01-17 21:00:00 4.7 12 Este 14 Este 0 -- -- 65
2021-01-17 20:00:00 1.2 6 Sudeste 12 Sudeste 0 -- -- 74
2021-01-17 19:00:00 2.8 10 Sudeste 13 Sur 0 -- -- 62
2021-01-17 18:00:00 8.5 6 Sudeste 10 Norte 0 -- -- 44
2021-01-17 17:00:00 11.5 7 Nordeste 17 Noroeste 0 -- -- 32
2021-01-17 16:00:00 12.4 9 Norte 17 Norte 0 -- -- 31
2021-01-17 15:00:00 12.4 8 Noroeste 13 Noroeste 0 -- -- 32
2021-01-17 14:00:00 12.4 7 Norte 10 Norte 0 -- -- 21
2021-01-17 13:00:00 12.2 5 Norte 10 Noroeste 0 -- -- 21
2021-01-17 12:00:00 11.3 0 Calma 6 Norte 0 -- -- 22
2021-01-17 11:00:00 9 3 Sudeste 13 Sur 0 -- -- 34
2021-01-17 10:00:00 3.5 10 Sur 15 Sudeste 0 -- -- 45
2021-01-17 09:00:00 0.6 12 Sudeste 14 Sudeste 0 -- -- 50
2021-01-17 08:00:00 0.1 13 Sudeste 15 Sudeste 0 -- -- 53
2021-01-17 07:00:00 1.3 10 Sur 18 Sudeste 0 -- -- 47
2021-01-17 06:00:00 2 14 Sur 18 Sudeste 0 -- -- 45
2021-01-17 05:00:00 1.1 12 Sudeste 19 Sur 0 -- -- 46
2021-01-17 04:00:00 2.2 17 Sur 19 Sur 0 -- -- 44
2021-01-17 03:00:00 2.1 14 Sur 19 Sur 0 -- -- 42
2021-01-17 02:00:00 2 16 Sudeste 19 Sudeste 0 -- -- 43
2021-01-17 01:00:00 2.2 13 Sur 16 Sur 0 -- -- 44
2021-01-17 00:00:00 2 12 Sur 17 Sudeste 0 -- -- 49
2021-01-16 23:00:00 2.8 12 Sur 22 Sur 0 -- -- 54
2021-01-16 22:00:00 3.3 14 Sur 23 Sur 0 -- -- 53
2021-01-16 21:00:00 3.2 14 Sur 19 Sur 0 -- -- 60
2021-01-16 20:00:00 2.4 14 Sur 19 Sur 0 -- -- 66
2021-01-16 19:00:00 3.7 15 Sur 19 Sur 0 -- -- 66
2021-01-16 18:00:00 8.7 7 Sur 10 Sur 0 -- -- 50
2021-01-16 17:00:00 11.9 5 Noroeste 11 Norte 0 -- -- 47
2021-01-16 16:00:00 12.5 8 Norte 15 Norte 0 -- -- 43
2021-01-16 15:00:00 11.6 10 Norte 15 Noroeste 0 -- -- 47
2021-01-16 14:00:00 10.3 9 Norte 14 Norte 0 -- -- 50
2021-01-16 13:00:00 11.7 6 Norte 26 Este 0 -- -- 38
2021-01-16 12:00:00 11.8 17 Este 25 Este 0 -- -- 21
2021-01-16 11:00:00 10.8 15 Este 22 Este 0 -- -- 21
2021-01-16 10:00:00 7.8 5 Este 21 Este 0 -- -- 28
2021-01-16 09:00:00 3.7 13 Este 18 Este 0 -- -- 34
2021-01-16 08:00:00 3.6 13 Este 17 Este 0 -- -- 36
2021-01-16 07:00:00 4.1 13 Este 18 Este 0 -- -- 35
2021-01-16 06:00:00 3.8 10 Este 18 Este 0 -- -- 35
2021-01-16 05:00:00 4 15 Este 19 Este 0 -- -- 35
2021-01-16 04:00:00 4.7 8 Este 21 Este 0 -- -- 35
2021-01-16 03:00:00 5.7 14 Este 26 Nordeste 0 -- -- 33
2021-01-16 02:00:00 5.4 17 Este 25 Este 0 -- -- 32
2021-01-16 01:00:00 4.7 17 Este 25 Este 0 -- -- 31
2021-01-16 00:00:00 2.5 17 Este 25 Este 0 -- -- 43
2021-01-15 23:00:00 0.7 17 Este 23 Este 0 -- -- 64
2021-01-15 22:00:00 -2.3 14 Este 18 Este 0 -- -- 91
2021-01-15 21:00:00 -1.9 5 Este 9 Nordeste 0 -- -- 87
2021-01-15 20:00:00 0.2 5 Este 12 Nordeste 0 -- -- 80
2021-01-15 19:00:00 0.7 3 Este 10 Nordeste 0 -- -- 75
2021-01-15 18:00:00 4.5 11 Nordeste 22 Este 0 -- -- 63
2021-01-15 17:00:00 6.5 17 Nordeste 28 Nordeste 0 -- -- 58
2021-01-15 16:00:00 7.9 18 Nordeste 26 Nordeste 0 -- -- 52
2021-01-15 15:00:00 8.1 14 Nordeste 22 Norte 0 -- -- 58
2021-01-15 14:00:00 8.1 17 Nordeste 26 Nordeste 0 -- -- 56
2021-01-15 13:00:00 7.5 18 Nordeste 31 Nordeste 0 -- -- 57
2021-01-15 12:00:00 7.5 18 Nordeste 27 Este 0 -- -- 55
2021-01-15 11:00:00 6.9 15 Este 27 Este 0 -- -- 60
2021-01-15 10:00:00 5.8 12 Este 23 Este 0 -- -- 65
2021-01-15 09:00:00 3.3 16 Este 22 Este 0 -- -- 79
2021-01-15 08:00:00 2.9 13 Este 19 Este 0 -- -- 76
2021-01-15 07:00:00 3.2 12 Este 18 Este 0 -- -- 76
2021-01-15 06:00:00 3.3 11 Este 15 Este 0 -- -- 77
2021-01-15 05:00:00 3.7 12 Este 20 Este 0 -- -- 75
2021-01-15 04:00:00 4.3 15 Este 25 Este 0 -- -- 71
2021-01-15 03:00:00 4.9 16 Este 25 Este 0 -- -- 64
2021-01-15 02:00:00 5.4 15 Este 23 Este 0 -- -- 58
2021-01-15 01:00:00 5.6 14 Este 26 Este 0 -- -- 51
2021-01-15 00:00:00 4.2 14 Este 22 Este 0 -- -- 51
2021-01-14 23:00:00 4.6 15 Este 25 Este 0 -- -- 38
2021-01-14 22:00:00 2.8 13 Este 23 Nordeste 0 -- -- 40
2021-01-14 21:00:00 3.8 17 Este 23 Este 0 -- -- 38
2021-01-14 20:00:00 1.9 13 Este 16 Este 0 -- -- 52
2021-01-14 19:00:00 2.8 10 Este 16 Este 0 -- -- 47
2021-01-14 18:00:00 5.8 6 Nordeste 13 Norte 0 -- -- 48
2021-01-14 17:00:00 8.6 9 Norte 17 Norte 0 -- -- 45
2021-01-14 16:00:00 10 8 Nordeste 21 Nordeste 0 -- -- 37
2021-01-14 15:00:00 10.4 13 Este 23 Este 0 -- -- 33
2021-01-14 14:00:00 9.7 12 Nordeste 18 Este 0 -- -- 33
2021-01-14 13:00:00 8.1 9 Nordeste 15 Nordeste 0 -- -- 37
2021-01-14 12:00:00 7.8 9 Nordeste 15 Nordeste 0 -- -- 36
2021-01-14 11:00:00 6.9 9 Nordeste 13 Este 0 -- -- 35
2021-01-14 10:00:00 4 8 Este 10 Este 0 -- -- 44
2021-01-14 09:00:00 -1.8 4 Sudeste 7 Este 0 -- -- 63
2021-01-14 08:00:00 -1.6 4 Sudeste 13 Este 0 -- -- 62
2021-01-14 07:00:00 0.6 8 Este 13 Este 0 -- -- 48
2021-01-14 06:00:00 -1.5 5 Este 11 Este 0 -- -- 62
2021-01-14 05:00:00 -2.3 8 Sudeste 10 Sudeste 0 -- -- 66
2021-01-14 04:00:00 -1.8 7 Sudeste 9 Este 0 -- -- 63
2021-01-14 03:00:00 -1.9 7 Sudeste 9 Este 0 -- -- 63
2021-01-14 02:00:00 -1.4 7 Este 9 Este 0 -- -- 61
2021-01-14 01:00:00 -1.1 6 Sudeste 11 Nordeste 0 -- -- 60
2021-01-14 00:00:00 2 10 Nordeste 12 Este 0 -- -- 40
2021-01-13 23:00:00 -0.8 6 Este 9 Este 0 -- -- 58
2021-01-13 22:00:00 -1.2 8 Sudeste 13 Sudeste 0 -- -- 64
2021-01-13 21:00:00 -0.3 12 Sudeste 15 Sudeste 0 -- -- 56
2021-01-13 20:00:00 -0.2 12 Sudeste 16 Sur 0 -- -- 59
2021-01-13 19:00:00 0.6 9 Sudeste 11 Sudeste 0 -- -- 64
2021-01-13 18:00:00 6.5 6 Sudeste 12 Nordeste 0 -- -- 49
2021-01-13 17:00:00 9.2 9 Norte 13 Norte 0 -- -- 39
2021-01-13 16:00:00 10.4 7 Norte 13 Noroeste 0 -- -- 37
2021-01-13 15:00:00 10.2 8 Noroeste 15 Noroeste 0 -- -- 39
2021-01-13 14:00:00 10.4 7 Norte 12 Norte 0 -- -- 29
2021-01-13 13:00:00 10 5 Nordeste 10 Nordeste 0 -- -- 28
2021-01-13 12:00:00 9 6 Este 15 Este 0 -- -- 27
2021-01-13 11:00:00 7.1 5 Nordeste 12 Sudeste 0 -- -- 40
2021-01-13 10:00:00 2.4 10 Sudeste 14 Sudeste 0 -- -- 52
2021-01-13 09:00:00 -1.1 8 Sur 10 Sudeste 0 -- -- 62
2021-01-13 08:00:00 -1 7 Sudeste 10 Este 0 -- -- 61
2021-01-13 07:00:00 -1.1 7 Sudeste 9 Sudeste 0 -- -- 63
2021-01-13 06:00:00 -1.2 7 Sudeste 11 Sudeste 0 -- -- 64
2021-01-13 05:00:00 -1 12 Sur 14 Sur 0 -- -- 61
2021-01-13 04:00:00 -1.2 4 Sudeste 13 Este 0 -- -- 61
2021-01-13 03:00:00 -0.8 8 Este 10 Este 0 -- -- 52
2021-01-13 02:00:00 -2.2 5 Sudeste 9 Sudeste 0 -- -- 64
2021-01-13 01:00:00 -2 4 Sudeste 13 Sudeste 0 -- -- 63
2021-01-13 00:00:00 -1.3 10 Sudeste 14 Sudeste 0 -- -- 61
2021-01-12 23:00:00 -1 8 Sudeste 13 Sudeste 0 -- -- 63
2021-01-12 22:00:00 -1.5 8 Sudeste 11 Sudeste 0 -- -- 67
2021-01-12 21:00:00 -1 9 Sudeste 14 Sudeste 0 -- -- 66
2021-01-12 20:00:00 -1.1 9 Sudeste 12 Sudeste 0 -- -- 71
2021-01-12 19:00:00 -0.7 9 Sur 12 Sudeste 0 -- -- 73
2021-01-12 18:00:00 5.2 5 Sudeste 13 Norte 0 -- -- 54
2021-01-12 17:00:00 8.2 8 Norte 12 Norte 0 -- -- 49
2021-01-12 16:00:00 8.7 6 Norte 17 Nordeste 0 -- -- 46
2021-01-12 15:00:00 9 12 Nordeste 22 Norte 0 -- -- 36
2021-01-12 14:00:00 9 15 Nordeste 23 Nordeste 0 -- -- 35
2021-01-12 13:00:00 8.8 12 Nordeste 27 Este 0 -- -- 34
2021-01-12 12:00:00 8.2 17 Este 30 Nordeste 0 -- -- 32
2021-01-12 11:00:00 6.1 16 Este 25 Este 0 -- -- 33
2021-01-12 10:00:00 3.4 9 Nordeste 15 Este 0 -- -- 42
2021-01-12 09:00:00 -2.4 6 Este 13 Este 0 -- -- 60
2021-01-12 08:00:00 -2.3 6 Sudeste 15 Este 0 -- -- 58
2021-01-12 07:00:00 0.3 13 Este 21 Este 0 -- -- 48
2021-01-12 06:00:00 -0.8 9 Este 24 Este 0 -- -- 58
2021-01-12 05:00:00 -0.3 14 Este 24 Este 0 -- -- 59
2021-01-12 04:00:00 -0.6 12 Este 24 Este 0 -- -- 62
2021-01-12 03:00:00 -0.6 12 Este 23 Este 0 -- -- 58
2021-01-12 02:00:00 0.5 13 Este 31 Este 0 -- -- 55
2021-01-12 01:00:00 0.4 21 Este 48 Nordeste 0 -- -- 60
2021-01-12 00:00:00 0.7 37 Este 57 Este 0 -- -- 56
2021-01-11 23:00:00 -0.6 31 Este 46 Este 0 -- -- 65
2021-01-11 22:00:00 -2.3 19 Este 35 Este 0 -- -- 79
2021-01-11 21:00:00 -2.1 20 Este 34 Este 0 -- -- 79
2021-01-11 20:00:00 -2.1 20 Este 30 Este 0 -- -- 79
2021-01-11 19:00:00 -2 17 Este 31 Nordeste 0 -- -- 78
2021-01-11 18:00:00 -0.8 18 Este 35 Nordeste 0 -- -- 73
2021-01-11 17:00:00 0.2 21 Nordeste 35 Nordeste 0 -- -- 69
2021-01-11 16:00:00 0.4 20 Nordeste 39 Este 0 -- -- 68
2021-01-11 15:00:00 0.2 23 Nordeste 36 Este 0 -- -- 68
2021-01-11 14:00:00 0 24 Nordeste 46 Nordeste 0 -- -- 67
2021-01-11 13:00:00 -0.3 32 Nordeste 45 Nordeste 0 -- -- 69
2021-01-11 12:00:00 -0.3 27 Este 47 Este 0 -- -- 70
2021-01-11 11:00:00 -1.1 26 Este 47 Este 0 -- -- 72
2021-01-11 10:00:00 -2.2 26 Este 44 Nordeste 0 -- -- 76
2021-01-11 09:00:00 -2.5 24 Este 45 Este 0 -- -- 77
2021-01-11 08:00:00 -2.3 27 Este 54 Este 0 -- -- 77
2021-01-11 07:00:00 -2.1 30 Nordeste 49 Nordeste 0 -- -- 77
2021-01-11 06:00:00 -2.1 35 Nordeste 60 Nordeste 0 -- -- 76
2021-01-11 05:00:00 -2 32 Nordeste 65 Este 0 -- -- 76
2021-01-11 04:00:00 -2.3 37 Este 61 Nordeste 0 -- -- 76
2021-01-11 03:00:00 -2.4 36 Este 64 Este 0 -- -- 77
2021-01-11 02:00:00 -2.4 38 Nordeste 57 Este 0 -- -- 78
2021-01-11 01:00:00 -2.5 32 Nordeste 57 Este 0 -- -- 79
2021-01-11 00:00:00 -2.4 33 Nordeste 62 Nordeste 0 -- -- 80
2021-01-10 23:00:00 -2.4 34 Nordeste 60 Nordeste 0 -- -- 82
2021-01-10 22:00:00 -1.8 30 Nordeste 53 Nordeste 0 -- -- 83
2021-01-10 21:00:00 -1.3 30 Nordeste 46 Nordeste 0 -- -- 86
2021-01-10 20:00:00 -1.3 27 Nordeste 46 Nordeste 0 -- -- 86
2021-01-10 19:00:00 -0.9 21 Nordeste 41 Nordeste 0 -- -- 83
2021-01-10 18:00:00 -0.8 24 Nordeste 42 Nordeste 0 -- -- 83
2021-01-10 17:00:00 -0.6 30 Nordeste 44 Nordeste 0 -- -- 81
2021-01-10 16:00:00 -0.5 28 Nordeste 47 Nordeste 0 -- -- 81
2021-01-10 15:00:00 -0.5 33 Nordeste 48 Nordeste 0.2 -- -- 82
2021-01-10 14:00:00 -0.6 27 Nordeste 43 Nordeste 0 -- -- 83
2021-01-10 13:00:00 -1.4 26 Nordeste 49 Nordeste 0 -- -- 88
2021-01-10 12:00:00 -1.4 29 Nordeste 53 Este 0 -- -- 90
2021-01-10 11:00:00 -1.8 28 Nordeste 43 Nordeste 0 -- -- 93
2021-01-10 10:00:00 -2.6 22 Este 38 Nordeste 0 -- -- 97
2021-01-10 09:00:00 -3.1 16 Nordeste 33 Nordeste 0 -- -- 98
2021-01-10 08:00:00 -3.3 21 Nordeste 32 Este 0 -- -- 98
2021-01-10 07:00:00 -3.7 13 Este 27 Nordeste 0 -- -- 98
2021-01-10 06:00:00 -4 17 Nordeste 27 Nordeste 0 -- -- 98
2021-01-10 05:00:00 -4 21 Nordeste 30 Nordeste 0 -- -- 98
2021-01-10 04:00:00 -3.5 14 Nordeste 22 Nordeste 0 -- -- 96
2021-01-10 03:00:00 -3.6 9 Nordeste 17 Nordeste 0 -- -- 96
2021-01-10 02:00:00 -3.7 7 Nordeste 15 Este 0 -- -- 96
2021-01-10 01:00:00 -3.8 8 Este 11 Este 0 -- -- 95
2021-01-10 00:00:00 -3.8 6 Nordeste 12 Nordeste 0 -- -- 95
2021-01-09 23:00:00 -3.6 6 Nordeste 18 Nordeste 0 -- -- 94
2021-01-09 22:00:00 -3.6 13 Nordeste 23 Nordeste 0 -- -- 95
2021-01-09 21:00:00 -3.6 12 Nordeste 25 Nordeste 0 -- -- 94
2021-01-09 20:00:00 -3.5 15 Nordeste 28 Nordeste 0 -- -- 94
2021-01-09 19:00:00 -3.5 16 Nordeste 35 Nordeste 0 -- -- 94
2021-01-09 18:00:00 -3.2 20 Nordeste 32 Nordeste 0 -- -- 92
2021-01-09 17:00:00 -3.1 21 Nordeste 37 Nordeste 0 -- -- 92
2021-01-09 16:00:00 -3 18 Nordeste 38 Nordeste 0 -- -- 91
2021-01-09 15:00:00 -3.2 21 Nordeste 42 Nordeste 0 -- -- 91
2021-01-09 14:00:00 -3.4 29 Nordeste 45 Nordeste 0 -- -- 91
2021-01-09 13:00:00 -3.5 28 Nordeste 46 Nordeste 0 -- -- 89
2021-01-09 12:00:00 -3.6 26 Nordeste 55 Este 0 -- -- 91
2021-01-09 11:00:00 -3.8 33 Nordeste 55 Nordeste 0 -- -- 94
2021-01-09 10:00:00 -4 32 Nordeste 49 Nordeste 0 -- -- 95
2021-01-09 09:00:00 -4.1 26 Nordeste 49 Nordeste 0 -- -- 95
2021-01-09 08:00:00 -4 22 Nordeste 41 Nordeste 0 -- -- 95
2021-01-09 07:00:00 -4.1 19 Nordeste 36 Nordeste 0 -- -- 95
2021-01-09 06:00:00 -4.1 18 Nordeste 34 Nordeste 0 -- -- 95
2021-01-09 05:00:00 -4 20 Nordeste 36 Nordeste 0 -- -- 95
2021-01-09 04:00:00 -3.5 25 Nordeste 40 Nordeste 0 -- -- 95
2021-01-09 03:00:00 -3.5 23 Nordeste 35 Nordeste 0 -- -- 95
2021-01-09 02:00:00 -3.3 17 Nordeste 36 Nordeste 0 -- -- 94
2021-01-09 01:00:00 -3.3 25 Nordeste 37 Nordeste 0 -- -- 95
2021-01-09 00:00:00 -3.2 21 Nordeste 35 Nordeste 0 -- -- 95
2021-01-08 23:00:00 -3.2 22 Nordeste 36 Este 0 -- -- 94
2021-01-08 22:00:00 -3 23 Nordeste 36 Nordeste 0 -- -- 94
2021-01-08 21:00:00 -3 21 Nordeste 37 Nordeste 0 -- -- 92
2021-01-08 20:00:00 -2.9 22 Nordeste 39 Nordeste 0 -- -- 90
2021-01-08 19:00:00 -2.8 24 Nordeste 39 Nordeste 0 -- -- 85
2021-01-08 18:00:00 -2.5 19 Nordeste 33 Nordeste 0 -- -- 81
2021-01-08 17:00:00 -2.3 19 Nordeste 34 Nordeste 0 -- -- 79
2021-01-08 16:00:00 -2 22 Nordeste 35 Nordeste 0 -- -- 78
2021-01-08 15:00:00 -2.3 22 Nordeste 33 Nordeste 0 -- -- 79
2021-01-08 14:00:00 -2.8 21 Nordeste 33 Nordeste 0 -- -- 80
2021-01-08 13:00:00 -3 27 Nordeste 33 Nordeste 0 -- -- 81
2021-01-08 12:00:00 -3.5 19 Nordeste 32 Nordeste 0 -- -- 80
2021-01-08 11:00:00 -3.7 26 Nordeste 35 Nordeste 0 -- -- 78
2021-01-08 10:00:00 -4.4 23 Nordeste 40 Nordeste 0 -- -- 79
2021-01-08 09:00:00 -4.6 26 Nordeste 33 Nordeste 0 -- -- 80
2021-01-08 08:00:00 -4.1 19 Nordeste 32 Este 0 -- -- 77
2021-01-08 07:00:00 -3.4 13 Este 38 Este 0 -- -- 72
2021-01-08 06:00:00 -3 25 Este 39 Este 0 -- -- 70
2021-01-08 05:00:00 -2.5 24 Este 36 Este 0 -- -- 72
2021-01-08 04:00:00 -2.5 18 Este 37 Este 0 -- -- 72
2021-01-08 03:00:00 -1.8 23 Este 35 Sudeste 0 -- -- 69
2021-01-08 02:00:00 -1.5 25 Este 38 Este 0 -- -- 72
2021-01-08 01:00:00 -1.6 17 Este 35 Este 0 -- -- 78
2021-01-08 00:00:00 -1.5 19 Este 30 Este 0 -- -- 76
2021-01-07 23:00:00 -1.4 15 Este 36 Este 0 -- -- 75
2021-01-07 22:00:00 -2.7 12 Este 19 Este 0 -- -- 85
2021-01-07 21:00:00 -2.2 10 Este 21 Este 0 -- -- 82
2021-01-07 20:00:00 -1.8 9 Este 17 Este 0 -- -- 82
2021-01-07 19:00:00 -1.1 5 Este 15 Nordeste 0 -- -- 78
2021-01-07 18:00:00 0.8 9 Nordeste 15 Nordeste 0 -- -- 74
2021-01-07 17:00:00 1.5 11 Nordeste 17 Nordeste 0 -- -- 73
2021-01-07 16:00:00 2.3 10 Nordeste 19 Norte 0 -- -- 70
2021-01-07 15:00:00 2.7 10 Nordeste 18 Nordeste 0 -- -- 66
2021-01-07 14:00:00 2.2 10 Norte 18 Norte 0 -- -- 67
2021-01-07 13:00:00 1.6 10 Norte 16 Norte 0 -- -- 67
2021-01-07 12:00:00 1.6 6 Norte 12 Nordeste 0 -- -- 64
2021-01-07 11:00:00 -0.4 8 Este 13 Este 0 -- -- 69
2021-01-07 10:00:00 -3.1 2 Nordeste 13 Este 0 -- -- 78
2021-01-07 09:00:00 -2.3 8 Este 14 Este 0 -- -- 75
2021-01-07 08:00:00 -3.3 5 Este 17 Este 0 -- -- 78
2021-01-07 07:00:00 -2.3 10 Este 14 Este 0 -- -- 71
2021-01-07 06:00:00 -2.4 8 Este 12 Este 0 -- -- 72
2021-01-07 05:00:00 -2.4 8 Este 12 Este 0 -- -- 73
2021-01-07 04:00:00 -2.8 5 Este 14 Este 0 -- -- 73
2021-01-07 03:00:00 -2.4 7 Este 12 Este 0 -- -- 75
2021-01-07 02:00:00 -2.9 6 Este 17 Este 0 -- -- 78
2021-01-07 01:00:00 -3.1 8 Este 15 Este 0 -- -- 79
2021-01-07 00:00:00 -2.3 11 Este 15 Este 0 -- -- 77
2021-01-06 23:00:00 -1.3 7 Este 21 Este 0 -- -- 76
2021-01-06 22:00:00 -1 12 Nordeste 18 Nordeste 0 -- -- 76
2021-01-06 21:00:00 -1.7 8 Este 16 Este 0 -- -- 78
2021-01-06 20:00:00 -1.6 10 Este 14 Este 0 -- -- 78
2021-01-06 19:00:00 -1.5 6 Este 13 Nordeste 0 -- -- 71
2021-01-06 18:00:00 0.7 10 Nordeste 21 Nordeste 0 -- -- 68
2021-01-06 17:00:00 3.1 14 Nordeste 23 Nordeste 0 -- -- 53
2021-01-06 16:00:00 3.8 14 Nordeste 22 Nordeste 0 -- -- 48
2021-01-06 15:00:00 3.8 14 Nordeste 23 Norte 0 -- -- 50
2021-01-06 14:00:00 3.4 10 Nordeste 17 Nordeste 0 -- -- 51
2021-01-06 13:00:00 3.1 9 Nordeste 16 Nordeste 0 -- -- 54
2021-01-06 12:00:00 2.3 7 Nordeste 14 Nordeste 0 -- -- 54
2021-01-06 11:00:00 1.5 8 Este 12 Este 0 -- -- 57
2021-01-06 10:00:00 -2.6 8 Sudeste 11 Sudeste 0 -- -- 74
2021-01-06 09:00:00 -5 10 Sudeste 12 Sur 0 -- -- 79
2021-01-06 08:00:00 -5 8 Sudeste 10 Sudeste 0 -- -- 80
2021-01-06 07:00:00 -5.2 4 Este 11 Este 0 -- -- 82
2021-01-06 06:00:00 -5.2 7 Sudeste 14 Sur 0 -- -- 81
2021-01-06 05:00:00 -4.2 12 Sur 18 Sur 0 -- -- 76
2021-01-06 04:00:00 -4.1 10 Sudeste 14 Sur 0 -- -- 80
2021-01-06 03:00:00 -4 11 Sudeste 16 Sur 0 -- -- 80
2021-01-06 02:00:00 -4.2 12 Sur 14 Sudeste 0 -- -- 84
2021-01-06 01:00:00 -4.1 12 Sudeste 14 Sur 0 -- -- 84
2021-01-06 00:00:00 -4.1 7 Sudeste 16 Sur 0 -- -- 84
2021-01-05 23:00:00 -3.6 14 Sur 17 Sudeste 0 -- -- 83
2021-01-05 22:00:00 -3.4 9 Sudeste 15 Sur 0 -- -- 84
2021-01-05 21:00:00 -3.3 9 Sudeste 11 Sudeste 0 -- -- 84
2021-01-05 20:00:00 -2.9 9 Sudeste 11 Sudeste 0 -- -- 84
2021-01-05 19:00:00 -2.4 8 Sur 12 Sudeste 0 -- -- 82
2021-01-05 18:00:00 2.2 3 Norte 12 Norte 0 -- -- 61
2021-01-05 17:00:00 3.8 4 Norte 10 Norte 0 -- -- 54
2021-01-05 16:00:00 3.9 5 Norte 15 Noroeste 0 -- -- 55
2021-01-05 15:00:00 3.7 10 Noroeste 23 Oeste 0 -- -- 56
2021-01-05 14:00:00 3.4 6 Nordeste 14 Este 0 -- -- 54
2021-01-05 13:00:00 2.8 8 Nordeste 17 Nordeste 0 -- -- 57
2021-01-05 12:00:00 2.1 9 Este 17 Este 0 -- -- 60
2021-01-05 11:00:00 1.1 9 Este 13 Este 0 -- -- 69
2021-01-05 10:00:00 -3.2 5 Este 13 Este 0 -- -- 92
2021-01-05 09:00:00 -6.1 5 Sudeste 12 Sur 0 -- -- 92
2021-01-05 08:00:00 -5.5 3 Este 10 Sur 0 -- -- 93
2021-01-05 07:00:00 -5.5 4 Sudeste 9 Sudeste 0 -- -- 94
2021-01-05 06:00:00 -5.6 5 Sudeste 7 Sudeste 0 -- -- 95
2021-01-05 05:00:00 -5.7 5 Sudeste 8 Sudeste 0 -- -- 94
2021-01-05 04:00:00 -5.2 5 Sudeste 12 Sudeste 0 -- -- 93
2021-01-05 03:00:00 -4.8 6 Sudeste 13 Sur 0 -- -- 92
2021-01-05 02:00:00 -4.4 10 Sudeste 14 Sur 0 -- -- 93
2021-01-05 01:00:00 -4.4 10 Sur 15 Sur 0 -- -- 93
2021-01-05 00:00:00 -4.1 8 Sur 17 Sur 0 -- -- 92
2021-01-04 23:00:00 -3.7 10 Sur 16 Sur 0 -- -- 93
2021-01-04 22:00:00 -3.4 12 Sur 15 Sur 0 -- -- 93
2021-01-04 21:00:00 -2.8 6 Sur 12 Sur 0 -- -- 91
2021-01-04 20:00:00 -1.8 3 Sur 8 Sur 0 -- -- 89
2021-01-04 19:00:00 -0.5 0 Calma 10 Noroeste 0 -- -- 84
2021-01-04 18:00:00 0.9 6 Noroeste 17 Oeste 0 -- -- 79
2021-01-04 17:00:00 1.1 6 Noroeste 13 Oeste 0 -- -- 77
2021-01-04 16:00:00 0.5 10 Oeste 19 Oeste 0 -- -- 78
2021-01-04 15:00:00 0.7 8 Noroeste 15 Oeste 0 -- -- 82
2021-01-04 14:00:00 0.7 8 Oeste 16 Oeste 0 -- -- 84
2021-01-04 13:00:00 0.4 10 Oeste 17 Oeste 0.2 -- -- 89
2021-01-04 12:00:00 -0.4 8 Oeste 13 Oeste 0 -- -- 98
2021-01-04 11:00:00 -0.7 7 Oeste 13 Sudoeste 0 -- -- 100
2021-01-04 10:00:00 -1.1 7 Oeste 18 Oeste 0 -- -- 100
2021-01-04 09:00:00 -1.1 5 Sudoeste 13 Oeste 0 -- -- 100
2021-01-04 08:00:00 -1 8 Oeste 17 Oeste 0 -- -- 99
2021-01-04 07:00:00 -0.6 11 Oeste 19 Oeste 0 -- -- 99
2021-01-04 06:00:00 -0.4 11 Oeste 19 Oeste 0 -- -- 99
2021-01-04 05:00:00 -0.3 12 Oeste 18 Oeste 0 -- -- 99
2021-01-04 04:00:00 -0.3 10 Oeste 18 Oeste 0 -- -- 98
2021-01-04 03:00:00 -0.3 12 Oeste 21 Oeste 0 -- -- 97
2021-01-04 02:00:00 -0.3 12 Oeste 23 Sudoeste 0 -- -- 96
2021-01-04 01:00:00 -0.2 13 Sudoeste 23 Oeste 0 -- -- 94
2021-01-04 00:00:00 -0.2 12 Sudoeste 22 Sudoeste 0 -- -- 92
2021-01-03 23:00:00 -0.2 13 Sudoeste 21 Sudoeste 0 -- -- 89
2021-01-03 22:00:00 -0.8 10 Sudoeste 20 Sudoeste 0 -- -- 90
2021-01-03 21:00:00 -1.1 9 Sudoeste 20 Sudoeste 0 -- -- 87
2021-01-03 20:00:00 -0.7 10 Sudoeste 17 Sudoeste 0 -- -- 85
2021-01-03 19:00:00 -0.5 9 Sudoeste 14 Oeste 0 -- -- 84
2021-01-03 18:00:00 0.9 5 Sudoeste 18 Oeste 0 -- -- 78
2021-01-03 17:00:00 1.9 13 Oeste 23 Noroeste 0 -- -- 75
2021-01-03 16:00:00 2.3 15 Noroeste 24 Oeste 0 -- -- 79
2021-01-03 15:00:00 1.8 13 Oeste 27 Oeste 0 -- -- 83
2021-01-03 14:00:00 0.9 12 Oeste 20 Oeste 0 -- -- 89
2021-01-03 13:00:00 -0.3 11 Oeste 22 Oeste 0 -- -- 94
2021-01-03 12:00:00 -0.7 9 Oeste 19 Sudoeste 0 -- -- 95
2021-01-03 11:00:00 -1.5 10 Sudoeste 18 Sudoeste 0.2 -- -- 96
2021-01-03 10:00:00 -2.1 9 Sudoeste 16 Sudoeste 0 -- -- 98
2021-01-03 09:00:00 -2.9 9 Sudoeste 15 Sudoeste 0 -- -- 98
2021-01-03 08:00:00 -3.4 8 Sur 13 Sur 0 -- -- 97
2021-01-03 07:00:00 -3.6 4 Sudoeste 12 Sudoeste 0 -- -- 97
2021-01-03 06:00:00 -5 5 Sudoeste 12 Sur 0 -- -- 93
2021-01-03 05:00:00 -4.7 9 Sur 10 Sur 0 -- -- 93
2021-01-03 04:00:00 -4.3 9 Sur 14 Sur 0 -- -- 94
2021-01-03 03:00:00 -4.3 11 Sur 14 Sur 0 -- -- 94
2021-01-03 02:00:00 -3.8 7 Sur 12 Sur 0 -- -- 94
2021-01-03 01:00:00 -2.8 4 Sur 10 Sudeste 0 -- -- 95
2021-01-03 00:00:00 -3.1 4 Sur 10 Sur 0 -- -- 94
2021-01-02 23:00:00 -2.7 4 Sur 9 Sur 0 -- -- 93
2021-01-02 22:00:00 -2.7 6 Sur 12 Sur 0 -- -- 92
2021-01-02 21:00:00 -2.6 7 Sur 10 Sur 0 -- -- 91
2021-01-02 20:00:00 -2.2 6 Sur 10 Sur 0 -- -- 88
2021-01-02 19:00:00 -1.9 4 Sur 6 Sur 0 -- -- 86
2021-01-02 18:00:00 1.2 3 Norte 18 Norte 0 -- -- 69
2021-01-02 17:00:00 2.1 12 Norte 31 Nordeste 0 -- -- 62
2021-01-02 16:00:00 2.2 11 Norte 23 Norte 0 -- -- 64
2021-01-02 15:00:00 2 14 Norte 28 Norte 0 -- -- 71
2021-01-02 14:00:00 1.6 15 Norte 26 Norte 0 -- -- 72